Location: Eastlake (historical)
(39.0077°N, 122.6678°W)
Time: 12:12:11
(UTC+00:00)

Cosmos 1933 - Pass Details

Date: 25 November 2020
Orbit: 546 x 564 km, 82.5° (Epoch: 26 January)

Event Time Altitude Azimuth Distance (km) Brightness Sun altitude
Exits shadow 13:59:56 10° 331° (NNW) 1,845 5.6 -12.6°
Maximum altitude 14:03:30 31° 269° (W) 1,009 4.1 -11.9°
Drops below altitude 10° 14:07:07 10° 207° (SSW) 1,850 5.9 -11.3°
Sets 14:09:27 0° 197° (SSW) 2,740 6.9 -10.8°
